User: anonymous   Login
Location: Vancouver
(49.2500°N, 123.1330°W)
Time: 09:50:06
(UTC-07:00)
Language:

SO-67 - Orbit

View from above orbital plane
View from above orbital plane
View from above satellite
View from above satellite

Ground track
Ground track

The orbit data is extracted from the following two-line orbital elements,

1 35870U 09049F   16240.11014201  .00006298  00000-0  11553-3 0  9991
2 35870  97.1182 254.0287 0002889  80.5849 322.4582 15.49627294387623
Epoch (UTC): 27 August 2016 02:38:36
Eccentricity: 0.0002889
inclination: 97.1182°
perigee height: 416 km
apogee height: 420 km
right ascension of ascending node: 254.0287°
argument of perigee: 80.5849°
revolutions per day: 15.49627294
mean anomaly at epoch: 322.4582°
orbit number at epoch: 38762

The dashed part of the orbit path shows where the satellite is in the earth's shadow,  

DLR